Regional Weather Roundup
Issued by NWS

Home | Current Version | Previous Version | Graphics & Text | Print | Product List | Glossary On
Versions: 1 2 3 4 5 6 7 8 9 10 11 12 13 14 15 16 17 18 19 20 21 22 23 24 25 26 27 28 29 30 31 32 33 34 35 36 37 38 39 40 41 42 43 44 45 46 47 48 49 50
000
ASUS43 KMKX 281800
RWRWI

WISCONSIN REGIONAL WEATHER ROUNDUP
NATIONAL WEATHER SERVICE MILWAUKEE/SULLIVAN WI
100 PM CDT FRI APR 28 2017

NOTE: "FAIR" INDICATES FEW OR NO CLOUDS BELOW 12,000 FEET WITH NO
SIGNIFICANT WEATHER AND/OR OBSTRUCTIONS TO VISIBILITY.

WIZ001-002-006>008-014>016-023>028-281900-
NORTHWEST WISCONSIN

CITY           SKY/WX    TMP DP  RH WIND       PRES   REMARKS
SUPERIOR ARPT  CLOUDY    42  27  56 NW8G17    29.92S
ASHLAND        CLOUDY    40  29  64 W17G24    29.91R WCI  31
6HR MIN TEMP:  30; 6HR MAX TEMP:  40;

HAYWARD        CLOUDY    40  24  53 W6        29.92R
6HR MIN TEMP:  30; 6HR MAX TEMP:  40;

SIREN          PTSUNNY   41  27  56 W8G17     29.94S
CUMBERLAND     CLOUDY    39  27  60 NW7       29.93S WCI  34
RICE LAKE      CLOUDY    41  28  60 W7        29.95R
CHETEK         CLOUDY    43  29  58 NW3       29.93R
LADYSMITH      CLOUDY    42  28  58 W8        29.93S
EAU CLAIRE     NOT AVBL
MENOMONIE      CLOUDY    46  28  49 W8        29.93F
NEW RICHMOND   CLOUDY    45  25  45 NW5       29.94F
OSCEOLA        CLOUDY    42  28  58 NW8       29.97F
$$

WIZ003>005-009-010-017-018-281900-
NORTH CENTRAL WISCONSIN

CITY           SKY/WX    TMP DP  RH WIND       PRES   REMARKS
MANITOWISH WTR CLOUDY    33  24  69 W15G21    29.88R WCI  23
ARBOR VITAE    CLOUDY    37  27  68 W10G16    29.88R WCI  29
WOODRUFF       CLOUDY    37  27  68 W10G16    29.88R WCI  29
RHINELANDER    CLOUDY    38  25  59 W9        29.90R WCI  31
6HR MIN TEMP:  30; 6HR MAX TEMP:  38; 6HR PCP: TRACE;

EAGLE RIVER    CLOUDY    34  23  63 W12G18    29.88R WCI  25
LAND O LAKES   CLOUDY    36  24  60 W12G17    29.88R WCI  28
PHILLIPS       CLOUDY    36  25  64 SW6       29.90R WCI  32
TOMAHAWK       CLOUDY    36  25  63 W6        29.92R WCI  32
MEDFORD        CLOUDY    39  29  67 W7        29.90F WCI  34
MERRILL        CLOUDY    39  28  64 W7G16     29.92R WCI  34
$$

WIZ029-030-035-036-043>047-281900-
CENTRAL WISCONSIN

CITY           SKY/WX    TMP DP  RH WIND       PRES   REMARKS
WAUSAU         MOSUNNY   42  28  57 W13       29.89F
6HR MIN TEMP:  32; 6HR MAX TEMP:  42;

MOSINEE        MOSUNNY   43  30  61 NW9       29.90F
MARSHFIELD     CLOUDY    43  28  55 NW12      29.89F
6HR MIN TEMP:  33; 6HR MAX TEMP:  44;

STEVENS POINT  CLOUDY    42  27  56 W6        29.90F
WAUPACA        CLOUDY    50  30  46 W6        29.91F
WAUTOMA        MOSUNNY   47  31  53 CALM      29.92S
6HR MIN TEMP:  36; 6HR MAX TEMP:  48;

WISC RAPIDS    CLOUDY    46  29  51 W5        29.93S
6HR MIN TEMP:  35; 6HR MAX TEMP:  47;

CAMP DOUGLAS   NOT AVBL
$$

WIZ011>013-019>022-031-037>040-048>050-281900-
NORTHEAST WISCONSIN

CITY           SKY/WX    TMP DP  RH WIND       PRES   REMARKS
ANTIGO         CLOUDY    38  29  67 W10       29.91R WCI  32
SHAWANO        MOSUNNY   48  29  47 SW6       29.91S
OCONTO         NOT AVBL
STURGEON BAY   CLOUDY    43  29  57 W10G17    29.92S
6HR MIN TEMP:  35; 6HR MAX TEMP:  44;

GREEN BAY      CLOUDY    47  34  60 SW7       29.91F
6HR MIN TEMP:  36; 6HR MAX TEMP:  48;

MANITOWOC      NOT AVBL
APPLETON       PTSUNNY   45  30  57 SW12      29.90F
CLINTONVILLE   PTSUNNY   45  28  53 CALM      29.90F
OSHKOSH        CLOUDY    48  34  58 W10       29.92S
6HR MIN TEMP:  36; 6HR MAX TEMP:  48;

$$

WIZ032>034-041-042-053>061-281900-
SOUTHWEST WISCONSIN

CITY           SKY/WX    TMP DP  RH WIND       PRES   REMARKS
LA CROSSE      CLOUDY    49  31  49 CALM      29.93R
6HR MIN TEMP:  36; 6HR MAX TEMP:  49;

SPARTA         CLOUDY    46  32  58 N3        29.92R
VIROQUA        CLOUDY    44  32  60 CALM      29.91S
BOSCOBEL       PTSUNNY   50  31  48 CALM      29.94R
6HR MIN TEMP:  34; 6HR MAX TEMP:  50;

PRAIRIE DU CHI CLOUDY    46  30  52 E6        29.92F
PLATTEVILLE    CLOUDY    44  36  74 E6        29.93S
$$

WIZ056-057-062-063-064-067-068-281900-
SOUTH CENTRAL WISCONSIN

CITY           SKY/WX    TMP DP  RH WIND       PRES   REMARKS
REEDSBURG      NOT AVBL
BARABOO/DELLS  CLOUDY    47  31  54 S3        29.93R
LONE ROCK      NOT AVBL
MINERAL POINT  CLOUDY    46  34  61 E3        29.92F
MADISON        CLOUDY    46  30  53 VRB5      29.93R
6HR MIN TEMP:  35; 6HR MAX TEMP:  46;

MIDDLETON      CLOUDY    48  33  57 E5        29.93S
WATERTOWN      CLOUDY    46  35  66 S5        29.95R
MONROE         DRIZZLE   43  34  70 NE3       29.93S
JANESVILLE     PTSUNNY   48  37  66 CALM      29.94S
$$

WIZ051-052-058>065-066-070>072-281900-
SOUTHEAST WISCONSIN

CITY           SKY/WX    TMP DP  RH WIND       PRES   REMARKS
MILWAUKEE      CLOUDY    49  38  65 SE10      29.95R
6HR MIN TEMP:  39; 6HR MAX TEMP:  54;

WAUKESHA       PTSUNNY   48  34  57 S3        29.95R
MILWAUKEE/TIMM PTSUNNY   52  32  46 SW6       29.95R
RACINE         CLOUDY    48  35  60 S9        29.97R
6HR MIN TEMP:  39; 6HR MAX TEMP:  52;

KENOSHA        CLOUDY    49  38  65 SE9       29.95S
6HR MIN TEMP:  39; 6HR MAX TEMP:  53;

FOND DU LAC    MOSUNNY   47  33  58 SW8       29.94R
6HR MIN TEMP:  37; 6HR MAX TEMP:  47;

SHEBOYGAN      SUNNY     50  42  74 VRB7      29.93S
6HR MIN TEMP:  37; 6HR MAX TEMP:  50;

WEST BEND      CLOUDY    50  36  57 W5        29.93S
JUNEAU         CLOUDY    46  36  68 S6        29.96R
$$

LSZ147-162-281900-
LAKE SUPERIOR

STATION/POSITION TIME  TEMP    WIND        PRES    WAVE
                       AIR SEA DIR/SP/G            HT/PER
                 (UTC) (F)     (DEG/KT/KT) (MB)    (FT/S)
DEVILS ISLAND    1700   35     240/ 20/ 24 1012.1R
PORT WING        1740   38     240/ 12/ 19 1013.2R
SAXON HARBOR     1730   37     210/  8/ 13 1012.5R
$$

LMZ867-665-643>646-281900-
LAKE MICHIGAN

STATION/POSITION TIME  TEMP    WIND        PRES    WAVE
                       AIR SEA DIR/SP/G            HT/PER
                 (UTC) (F)     (DEG/KT/KT) (MB)    (FT/S)
CHAMBERS ISLAND  1740   41     220/  9/ 14 1012.9R
N MID LAKE BUOY  1650   36 37  240/ 14/ 16 1014.2R   3/ 6
NORTHPORT PIER   1740   40     230/  7/ 16 1013.5R
KEWAUNEE LAKESHO 1730   44     250/ 10/ 14 1013.1F
SHEBOYGAN LAKESH 1700   40     150/ 13/ 13 1013.8F
PORT WASHINGTON  1740   42     150/  9/ 10 1015.2R
MILWAUKEE LAKESH 1730   42     140/ 11/ 13   N/A
S MID LAKE BUOY  1650   43 42  110/  2/  4 1015.3R   1
KENOSHA   LAKESH 1700   44     140/  8/ 10 1014.6
$$

TC  - TEMPERATURE IN CELSIUS
VSB - VISIBILITY IN STATUTE MILES
WCI - WIND CHILL INDEX
HX  - HEAT INDEX




USA.gov is the U.S. government's official web portal to all federal, state and local government web resources and services.